Weather History for KUGN - March, 2014

Change the Weather History Date:

Friday, March 28, 2014

  Actual Average Record
Temperature  
Mean Temperature 42 °F -  
Max Temperature 51 °F 48 °F 73 °F (2004)
Min Temperature 32 °F 30 °F 13 °F (2015)
Degree Days  
Heating Degree Days 23 26  
Month to date heating degree days 1058 849  
Since 1 July heating degree days 6927 5795  
Cooling Degree Days 0 0  
Month to date cooling degree days 0 0  
Year to date cooling degree days 0 0  
Moisture  
Dew Point 34 °F    
Average Humidity 81    
Maximum Humidity 92    
Minimum Humidity 70    
Precipitation  
Precipitation 0.17 in 0.10 in 1.17 in (2004)
Month to date precipitation 0.76 2.04  
Year to date precipitation 2.78 5.09  
Sea Level Pressure  
Sea Level Pressure 29.83 in    
Wind  
Wind Speed 10 mph (NNW)    
Max Wind Speed 28 mph    
Max Gust Speed 38 mph    
Visibility 7 miles    
Events Rain , Snow    
T = Trace of Precipitation, MM = Missing Value Source: NWS Daily Summary

Daily Weather History Graph

Daily Weather History Graph

Search for Another Location

Airport or City:

Trip Planner

Search our weather history database for the weather conditions in past years. The results will help you decide how hot, cold, wet, or windy it might be!

Date:

Astronomy

Mar. 28, 2014 Rise Set
Actual Time 6:40 AM CDT 7:12 PM CDT
Civil Twilight 6:12 AM CDT 7:41 PM CDT
Nautical Twilight 5:39 AM CDT 8:14 PM CDT
Astronomical Twilight 5:05 AM CDT 8:48 PM CDT
Moon 5:14 AM CDT (3/28) 5:07 PM CDT (3/28)
Length of Visible Light 13h 28m
Length of Day
12h 32m
Waning Crescent, 6% of the Moon is Illuminated
Mar 28
Waning Crescent
Mar 30
New
Apr 7
First Quarter
Apr 15
Full
Apr 22
Last Quarter

Hourly Weather History & Observations

Time (CDT) Temp. Windchill Dew Point Humidity Pressure Visibility Wind Dir Wind Speed Gust Speed Precip Events Conditions
12:52 AM 51.1 °F - 46.9 °F 86% 29.41 in 7.0 mi SSW 16.1 mph 27.6 mph 0.00 in Rain Light Rain
1:21 AM 50.0 °F - 48.0 °F 93% 29.40 in 6.0 mi SW 11.5 mph - 0.03 in Rain Light Rain
1:39 AM 50.0 °F - 48.0 °F 93% 29.40 in 8.0 mi SW 12.7 mph 20.7 mph 0.03 in   Overcast
1:52 AM 51.1 °F - 46.0 °F 83% 29.41 in 10.0 mi SSW 26.5 mph 38.0 mph 0.03 in   Overcast
2:07 AM 50.0 °F - 45.0 °F 83% 29.41 in 10.0 mi SW 12.7 mph 28.8 mph N/A   Overcast
2:32 AM 46.9 °F - 43.0 °F 86% 29.44 in 8.0 mi WSW 12.7 mph 24.2 mph N/A   Overcast
2:52 AM 44.1 °F 35.4 °F 39.9 °F 85% 29.47 in 10.0 mi SW 21.9 mph 33.4 mph N/A   Overcast
3:45 AM 43.0 °F 36.4 °F 39.9 °F 89% 29.47 in 6.0 mi SW 12.7 mph 21.9 mph N/A   Overcast
3:52 AM 43.0 °F 36.8 °F 39.9 °F 89% 29.49 in 5.0 mi SW 11.5 mph 21.9 mph 0.00 in Rain Light Rain
4:52 AM 42.1 °F 34.9 °F 39.9 °F 92% 29.54 in 4.0 mi NW 13.8 mph 23.0 mph 0.03 in Rain Rain
5:04 AM 41.0 °F 34.7 °F 39.0 °F 93% 29.55 in 6.0 mi NNW 10.4 mph 21.9 mph 0.01 in Rain Light Rain
5:52 AM 36.0 °F 26.0 °F 34.0 °F 93% 29.65 in 6.0 mi NW 17.3 mph 25.3 mph 0.04 in Rain Light Rain
6:23 AM 33.1 °F 26.9 °F 32.0 °F 96% 29.67 in 2.5 mi NW 6.9 mph 18.4 mph 0.03 in Snow Light Snow
6:33 AM 34.0 °F 25.5 °F 32.0 °F 92% 29.69 in 4.0 mi NW 11.5 mph - 0.04 in Snow Light Snow
6:52 AM 34.0 °F 26.0 °F 32.0 °F 92% 29.75 in 4.0 mi NW 10.4 mph - 0.06 in Snow Light Snow
7:17 AM 34.0 °F 26.6 °F 32.0 °F 92% 29.76 in 2.5 mi WNW 9.2 mph - 0.01 in Snow Light Snow
7:23 AM 34.0 °F 26.0 °F 32.0 °F 92% 29.77 in 4.0 mi WNW 10.4 mph - 0.01 in Rain Light Rain
7:52 AM 35.1 °F 26.9 °F 32.0 °F 89% 29.82 in 7.0 mi NW 11.5 mph 19.6 mph 0.02 in   Overcast
8:52 AM 36.0 °F 28.5 °F 32.0 °F 86% 29.88 in 10.0 mi NW 10.4 mph 19.6 mph N/A   Overcast
9:52 AM 36.0 °F 27.1 °F 30.0 °F 79% 29.94 in 10.0 mi NW 13.8 mph 21.9 mph N/A   Overcast
10:52 AM 37.0 °F 29.8 °F 30.0 °F 76% 29.97 in 10.0 mi NW 10.4 mph 16.1 mph N/A   Overcast
11:52 AM 37.9 °F 32.1 °F 28.9 °F 70% 30.00 in 10.0 mi North 8.1 mph 17.3 mph N/A   Overcast
12:52 PM 37.9 °F 33.5 °F 28.9 °F 70% 30.02 in 9.0 mi North 5.8 mph - N/A   Overcast
1:52 PM 37.0 °F 32.4 °F 30.0 °F 76% 30.05 in 8.0 mi NNE 5.8 mph - N/A   Overcast
2:52 PM 35.1 °F 30.1 °F 28.9 °F 78% 30.12 in 8.0 mi East 5.8 mph - N/A   Overcast
3:52 PM 35.1 °F 31.0 °F 28.0 °F 76% 30.14 in 8.0 mi NE 4.6 mph - N/A   Overcast
4:52 PM 35.1 °F 29.3 °F 28.0 °F 76% 30.15 in 8.0 mi ENE 6.9 mph - N/A   Overcast
5:52 PM 34.0 °F 28.0 °F 28.0 °F 79% 30.17 in 7.0 mi East 6.9 mph - N/A   Overcast
6:52 PM 33.1 °F 27.7 °F 28.0 °F 82% 30.19 in 7.0 mi ENE 5.8 mph - N/A   Overcast
7:52 PM 33.1 °F 30.0 °F 28.0 °F 82% 30.22 in 8.0 mi East 3.5 mph - N/A   Overcast
8:52 PM 32.0 °F 24.2 °F 28.0 °F 85% 30.18 in 9.0 mi NNE 9.2 mph - N/A   Overcast
9:52 PM 32.0 °F 24.8 °F 27.0 °F 82% 30.19 in 9.0 mi NE 8.1 mph - N/A   Overcast
10:52 PM 32.0 °F 26.4 °F 27.0 °F 82% 30.21 in 9.0 mi NE 5.8 mph - N/A   Overcast
11:45 PM 32.0 °F 25.6 °F 27.0 °F 82% 30.18 in 9.0 mi ENE 6.9 mph - N/A   Scattered Clouds
11:52 PM 32.0 °F 25.6 °F 27.0 °F 82% 30.21 in 10.0 mi ENE 6.9 mph - N/A   Partly Cloudy